Custer, SD

3:46 PM MDT on August 24, 2016 (GMT -0600)
Custer County

Weather History for KCUT - February, 2014

Change the Weather History Date:

Tuesday, February 4, 2014

  Actual Average Record
Temperature  
Mean Temperature -4 °F 24 °F  
Max Temperature 1 °F 35 °F 64 °F (1962)
Min Temperature -10 °F 14 °F -27 °F (1982)
Degree Days  
Heating Degree Days 69 41  
Month to date heating degree days 233 164  
Since 1 July heating degree days 4743 4899  
Cooling Degree Days 0 0  
Month to date cooling degree days 0 0  
Year to date cooling degree days 0 0  
Moisture  
Dew Point -8 °F    
Average Humidity 81    
Maximum Humidity 91    
Minimum Humidity 71    
Precipitation  
Precipitation 0.12 in 0.02 in 0.20 in (1986)
Month to date precipitation 0.18 0.08  
Year to date precipitation 0.63 0.41  
Sea Level Pressure  
Sea Level Pressure 30.15 in    
Wind  
Wind Speed 7 mph (ENE)    
Max Wind Speed 15 mph    
Max Gust Speed 19 mph    
Visibility 3 miles    
Events Snow    
T = Trace of Precipitation, MM = Missing Value Source: NWS Daily Summary

Daily Weather History Graph

Daily Weather History Graph

Search for Another Location

Airport or City:

Trip Planner

Search our weather history database for the weather conditions in past years. The results will help you decide how hot, cold, wet, or windy it might be!

Date:

Astronomy

Feb. 04, 2014 Rise Set
Actual Time 7:07 AM MST 5:09 PM MST
Civil Twilight 6:37 AM MST 5:39 PM MST
Nautical Twilight 6:03 AM MST 6:14 PM MST
Astronomical Twilight 5:29 AM MST 6:47 PM MST
Moon 9:35 AM MST (2/4) 11:19 PM MST (2/4)
Length of Visible Light 11h 02m
Length of Day
10h 02m
Waxing Crescent, 29% of the Moon is Illuminated
Feb 4
Waxing Crescent
Feb 6
First Quarter
Feb 14
Full
Feb 22
Last Quarter
Mar 1
New

Hourly Weather History & Observations

Time (MST) Temp. Windchill Dew Point Humidity Pressure Visibility Wind Dir Wind Speed Gust Speed Precip Events Conditions
12:07 AM 1.0 °F -14.0 °F -2.0 °F 87% 29.95 in 2.0 mi East 9.2 mph - 0.00 in Snow Light Snow
12:21 AM 1.0 °F -14.9 °F -2.0 °F 87% 29.95 in 1.5 mi East 10.4 mph - 0.00 in Snow Light Snow
12:32 AM 1.0 °F -14.0 °F -2.0 °F 87% 29.95 in 2.5 mi East 9.2 mph - 0.00 in Snow Light Snow
12:53 AM 1.0 °F -12.9 °F -2.9 °F 83% 30.20 in 1.8 mi NE 8.1 mph - 0.00 in Snow Light Snow
12:56 AM 1.0 °F -14.0 °F -2.9 °F 83% 29.95 in 2.0 mi NE 9.2 mph - 0.00 in Snow Light Snow
1:05 AM 1.0 °F -11.7 °F -2.9 °F 83% 29.95 in 5.0 mi ENE 6.9 mph - 0.00 in Snow Light Snow
1:13 AM 1.0 °F -14.9 °F -2.9 °F 83% 29.95 in 4.0 mi ENE 10.4 mph - 0.00 in Snow Light Snow
1:53 AM 1.0 °F -14.0 °F -2.9 °F 83% 30.22 in 7.0 mi NE 9.2 mph - 0.00 in   Overcast
2:12 AM 1.0 °F -15.8 °F -2.9 °F 83% 29.96 in 2.5 mi NE 11.5 mph - 0.00 in Snow Light Snow
2:18 AM 1.0 °F -11.7 °F -4.0 °F 79% 29.96 in 3.0 mi ENE 6.9 mph - 0.00 in Snow Light Snow
2:41 AM -0.0 °F -18.0 °F -2.9 °F 88% 29.95 in 6.0 mi ENE 12.7 mph - 0.00 in   Overcast
2:51 AM -0.4 °F -16.7 °F -2.2 °F 92% 29.95 in 5.0 mi ENE 10.4 mph - 0.00 in   Overcast
2:53 AM -0.0 °F -17.1 °F -2.9 °F 88% 30.23 in 5.0 mi NE 11.5 mph - 0.00 in   Overcast
3:53 AM -0.0 °F -17.1 °F -4.0 °F 83% 30.24 in 8.0 mi NE 11.5 mph - 0.00 in   Overcast
4:38 AM -0.9 °F -18.3 °F -5.1 °F 83% 29.96 in 2.0 mi NE 11.5 mph - 0.00 in Snow Light Snow
4:53 AM -0.9 °F -17.4 °F -5.1 °F 83% 30.26 in 2.0 mi NE 10.4 mph - 0.00 in Snow Light Snow
5:38 AM -2.0 °F -19.6 °F -6.0 °F 83% 29.97 in 1.2 mi NE 11.5 mph - 0.00 in Snow Light Snow
5:47 AM -2.2 °F -19.9 °F -5.8 °F 85% 29.97 in 3.0 mi NE 11.5 mph - 0.00 in   Overcast
5:53 AM -2.0 °F -17.7 °F -6.0 °F 83% 30.28 in 3.0 mi NE 9.2 mph - 0.00 in Snow Light Snow
5:58 AM -2.0 °F -17.7 °F -6.0 °F 83% 29.97 in 1.8 mi ENE 9.2 mph - 0.00 in Snow Light Snow
6:15 AM -2.9 °F -17.7 °F -7.1 °F 82% 29.98 in 0.8 mi ENE 8.1 mph - 0.01 in Snow Light Snow
6:47 AM -2.2 °F -18.0 °F -7.6 °F 78% 29.99 in 1.0 mi ENE 9.2 mph - 0.02 in Snow Light Snow
6:48 AM -2.9 °F -18.8 °F -8.0 °F 79% 30.31 in 1.0 mi ENE 9.2 mph - 0.02 in Snow Light Snow
7:14 AM -4.0 °F -19.0 °F -8.0 °F 83% 30.00 in 1.8 mi ENE 8.1 mph - 0.00 in Snow Light Snow
7:22 AM -4.0 °F -20.2 °F -9.0 °F 79% 30.00 in 2.0 mi ENE 9.2 mph - 0.00 in Snow Light Snow
7:39 AM -4.0 °F -16.3 °F -8.0 °F 83% 30.01 in 1.5 mi ENE 5.8 mph - 0.00 in Snow Light Snow
7:53 AM -4.0 °F -16.3 °F -9.0 °F 79% 30.35 in 1.8 mi NE 5.8 mph - 0.01 in Snow Light Snow
8:16 AM -4.0 °F -19.0 °F -9.0 °F 79% 30.02 in 2.0 mi NE 8.1 mph - 0.00 in Snow Light Snow
8:23 AM -4.0 °F -19.0 °F -9.0 °F 79% 30.02 in 1.5 mi NE 8.1 mph - 0.00 in Snow Light Snow
8:53 AM -2.9 °F -16.5 °F -9.0 °F 75% 30.35 in 1.2 mi ENE 6.9 mph - 0.01 in Snow Light Snow
9:29 AM -2.9 °F -17.7 °F -9.0 °F 75% 30.03 in 1.8 mi NE 8.1 mph - 0.00 in Snow Light Snow
9:53 AM -2.0 °F -16.6 °F -8.0 °F 76% 30.37 in 1.2 mi NE 8.1 mph - 0.01 in Snow Light Snow
10:53 AM -0.9 °F -16.4 °F -7.1 °F 75% 30.37 in 1.2 mi ENE 9.2 mph - 0.01 in Snow Light Snow
11:06 AM -0.9 °F -14.1 °F -7.1 °F 75% 30.03 in 2.0 mi ENE 6.9 mph - 0.00 in Snow Light Snow
11:30 AM -0.0 °F -15.3 °F -7.1 °F 72% 30.03 in 1.8 mi NE 9.2 mph - 0.00 in Snow Light Snow
11:45 AM -0.0 °F -14.2 °F -6.0 °F 76% 30.02 in 2.0 mi ENE 8.1 mph - 0.00 in Snow Light Snow
11:53 AM -0.0 °F -16.3 °F -7.1 °F 72% 30.35 in 2.0 mi East 10.4 mph - 0.00 in   Haze
12:26 PM -0.0 °F -14.2 °F -6.0 °F 76% 30.02 in 3.0 mi East 8.1 mph - N/A   Haze
12:53 PM -0.0 °F -14.2 °F -6.0 °F 76% 30.36 in 2.5 mi East 8.1 mph - N/A   Haze
1:03 PM -0.0 °F -15.3 °F -6.0 °F 76% 30.03 in 1.2 mi ENE 9.2 mph - 0.01 in Snow Light Snow
1:17 PM -0.9 °F -16.4 °F -7.1 °F 75% 30.03 in 1.2 mi East 9.2 mph - 0.01 in Snow Light Snow
1:34 PM -0.9 °F -15.3 °F -7.1 °F 75% 30.03 in 2.5 mi East 8.1 mph - 0.01 in Snow Light Snow
1:45 PM -0.9 °F -16.4 °F -7.1 °F 75% 30.04 in 3.0 mi East 9.2 mph - 0.01 in   Haze
1:53 PM -2.0 °F -17.7 °F -8.0 °F 76% 30.38 in 2.0 mi East 9.2 mph - 0.01 in Snow Light Snow
2:05 PM -2.0 °F -17.7 °F -8.0 °F 76% 30.04 in 1.5 mi East 9.2 mph - 0.00 in Snow Light Snow
2:11 PM -2.9 °F -18.8 °F -9.0 °F 75% 30.04 in 2.0 mi East 9.2 mph - 0.00 in Snow Light Snow
2:30 PM -4.0 °F -17.8 °F -9.9 °F 76% 30.06 in 1.8 mi East 6.9 mph - 0.01 in Snow Light Snow
2:49 PM -4.0 °F -17.8 °F -9.4 °F 78% 30.06 in 1.2 mi ENE 6.9 mph - 0.01 in Snow Light Snow
2:53 PM -4.0 °F -20.2 °F -9.9 °F 76% 30.42 in 1.2 mi ENE 9.2 mph - 0.01 in Snow Light Snow
3:34 PM -5.1 °F -20.4 °F -11.0 °F 76% 30.08 in 2.0 mi NE 8.1 mph - 0.01 in Snow Light Snow
3:44 PM -5.1 °F -19.1 °F -11.0 °F 76% 30.09 in 1.2 mi NE 6.9 mph - 0.01 in Snow Light Snow
3:53 PM -5.1 °F -19.1 °F -11.0 °F 76% 30.45 in 1.0 mi NE 6.9 mph - 0.01 in Snow Light Snow
4:28 PM -5.1 °F -19.1 °F -11.0 °F 76% 30.09 in 2.0 mi ENE 6.9 mph - 0.01 in Snow Light Snow
4:53 PM -5.1 °F -15.8 °F -11.0 °F 76% 30.47 in 2.0 mi ENE 4.6 mph - 0.01 in Snow Light Snow
5:01 PM -5.1 °F -15.8 °F -11.0 °F 76% 30.10 in 1.5 mi NNE 4.6 mph - 0.00 in Snow Light Snow
5:12 PM -6.0 °F -18.6 °F -11.0 °F 79% 30.11 in 1.5 mi NNE 5.8 mph - 0.00 in Snow Light Snow
5:25 PM -6.0 °F -18.6 °F -11.9 °F 75% 30.11 in 2.5 mi NE 5.8 mph - 0.00 in Snow Light Snow
5:32 PM -6.0 °F -16.9 °F -11.9 °F 75% 30.11 in 7.0 mi NNE 4.6 mph - 0.00 in   Overcast
5:53 PM -7.1 °F -19.9 °F -11.9 °F 79% 30.50 in 10.0 mi NE 5.8 mph - 0.00 in   Overcast
6:21 PM -7.1 °F - -11.9 °F 79% 30.13 in 2.5 mi Calm Calm - 0.00 in Snow Light Snow
6:44 PM -7.1 °F - -11.9 °F 79% 30.13 in 3.0 mi Calm Calm - 0.01 in Snow Light Snow
6:53 PM -7.1 °F - -11.9 °F 79% 30.52 in 3.0 mi Calm Calm - 0.01 in Snow Light Snow
7:00 PM -7.1 °F - -11.9 °F 79% 30.13 in 2.5 mi Calm Calm - 0.00 in Snow Light Snow
7:12 PM -7.1 °F - -13.0 °F 75% 30.13 in 3.0 mi Calm Calm - 0.00 in Snow Light Snow
7:27 PM -8.0 °F - -13.0 °F 79% 30.14 in 3.0 mi Calm Calm - 0.00 in Snow Light Snow
7:53 PM -9.9 °F - -15.0 °F 78% 30.55 in 6.0 mi Calm Calm - 0.00 in Snow Light Snow
8:41 PM -8.0 °F -16.9 °F -13.0 °F 79% 30.16 in 2.0 mi West 3.5 mph - 0.00 in Snow Light Snow
8:53 PM -7.1 °F -15.9 °F -11.9 °F 79% 30.56 in 3.0 mi West 3.5 mph - 0.00 in Snow Light Snow
9:01 PM -7.1 °F -15.9 °F -11.9 °F 79% 30.17 in 2.5 mi West 3.5 mph - 0.00 in Snow Light Snow
9:17 PM -7.1 °F - -11.9 °F 79% 30.17 in 4.0 mi Calm Calm - 0.01 in Snow Light Snow
9:53 PM -7.1 °F -19.9 °F -11.9 °F 79% 30.56 in 4.0 mi WSW 5.8 mph - 0.01 in Snow Light Snow
10:53 PM -8.0 °F -19.2 °F -13.0 °F 79% 30.57 in 8.0 mi West 4.6 mph - 0.00 in Snow Light Snow
11:41 PM -9.9 °F - -16.1 °F 74% 30.20 in 7.0 mi Calm Calm - 0.00 in   Overcast
11:53 PM -9.0 °F - -14.1 °F 79% 30.58 in 10.0 mi Calm Calm - 0.00 in   Overcast